,,Stat6,,Stat2,,Stat8,,Stat9,,Stat10,,Wind1,,Wind1,
time,status,PA1M_AVG,status,PR1M_SUM,status,RH1M_AVG,status,SR1M_AVG,status,TA1M_AVG,status,W1dAve1m,status,W1sAve1m,
2003-09-25, 00:00:00,VALID,919.311,VALID,0,VALID,100,VALID,-0.0339617,VALID,19.7869,VALID,11,VALID,0.582711,
2003-09-25, 00:01:00,VALID,919.313,VALID,0,VALID,100,VALID,-0.0169808,VALID,19.7842,VALID,19,VALID,0.713068,
2003-09-25, 00:02:00,VALID,919.317,VALID,0,VALID,100,VALID,-0.0509425,VALID,19.7877,VALID,17,VALID,0.581364,
2003-09-25, 00:03:00,VALID,919.323,VALID,0,VALID,100,VALID,0.101885,VALID,19.782,VALID,17,VALID,0.307351,
2003-09-25, 00:04:00,VALID,919.309,VALID,0,VALID,100,VALID,0.101885,VALID,19.7748,VALID,17,VALID,0.533668,
2003-09-25, 00:05:00,VALID,919.299,VALID,0,VALID,100,VALID,0.0849042,VALID,19.7715,VALID,17,VALID,0.0418527,
2003-09-25, 00:06:00,VALID,919.281,VALID,0,VALID,100,VALID,0.101885,VALID,19.7591,VALID,13,VALID,0.399479,
2003-09-25, 00:07:00,VALID,919.26,VALID,0,VALID,100,VALID,0.101885,VALID,19.7266,VALID,316,VALID,0.481001,
2003-09-25, 00:08:00,VALID,919.253,VALID,0,VALID,100,VALID,0.101885,VALID,19.6881,VALID,280,VALID,0.332371,
2003-09-25, 00:09:00,VALID,919.238,VALID,0,VALID,100,VALID,0.101885,VALID,19.6717,VALID,324,VALID,0.299851,
2003-09-25, 00:10:00,VALID,919.222,VALID,0,VALID,100,VALID,0.101885,VALID,19.6583,VALID,324,VALID,0.046875,
2003-09-25, 00:11:00,VALID,919.218,VALID,0,VALID,100,VALID,0.101885,VALID,19.659,VALID,324,VALID,0,
2003-09-25, 00:12:00,VALID,919.204,VALID,0,VALID,100,VALID,0.118866,VALID,19.6719,VALID,324,VALID,0,
2003-09-25, 00:13:00,VALID,919.206,VALID,0,VALID,100,VALID,0.101885,VALID,19.6781,VALID,324,VALID,0,
2003-09-25, 00:14:00,VALID,919.203,VALID,0,VALID,100,VALID,0.101885,VALID,19.6873,VALID,324,VALID,0.0947917,
2003-09-25, 00:15:00,VALID,919.207,VALID,0,VALID,100,VALID,0.118866,VALID,19.7069,VALID,347,VALID,0.266335,
2003-09-25, 00:16:00,VALID,919.198,VALID,0,VALID,100,VALID,0.101885,VALID,19.73,VALID,10,VALID,0.212462,
2003-09-25, 00:17:00,VALID,919.202,VALID,0,VALID,100,VALID,0.118866,VALID,19.736,VALID,10,VALID,0.0268111,
2003-09-25, 00:18:00,VALID,919.217,VALID,0,VALID,100,VALID,0,VALID,19.7536,VALID,10,VALID,0.00457317,
2003-09-25, 00:19:00,VALID,919.216,VALID,0,VALID,100,VALID,0,VALID,19.7668,VALID,10,VALID,0.185902,
2003-09-25, 00:20:00,VALID,919.234,VALID,0,VALID,100,VALID,0,VALID,19.7762,VALID,22,VALID,0.385861,
2003-09-25, 00:21:00,VALID,919.239,VALID,0,VALID,100,VALID,0,VALID,19.7864,VALID,22,VALID,0.119284,
2003-09-25, 00:22:00,VALID,919.246,VALID,0,VALID,100,VALID,0.0339617,VALID,19.7797,VALID,22,VALID,0.144886,
2003-09-25, 00:23:00,VALID,919.25,VALID,0,VALID,100,VALID,0,VALID,19.7603,VALID,22,VALID,0.261533,
2003-09-25, 00:24:00,VALID,919.236,VALID,0,VALID,100,VALID,0,VALID,19.7504,VALID,22,VALID,0.245722,
2003-09-25, 00:25:00,VALID,919.228,VALID,0,VALID,100,VALID,0.0169808,VALID,19.7504,VALID,20,VALID,0.200335,
2003-09-25, 00:26:00,VALID,919.22,VALID,0,VALID,100,VALID,0.0509425,VALID,19.738,VALID,20,VALID,0.0577363,
2003-09-25, 00:27:00,VALID,919.208,VALID,0,VALID,100,VALID,0.0169808,VALID,19.7079,VALID,20,VALID,0.107572,
2003-09-25, 00:28:00,VALID,919.196,VALID,0,VALID,100,VALID,-0.0169808,VALID,19.7079,VALID,30,VALID,0.249455,
2003-09-25, 00:29:00,VALID,919.21,VALID,0,VALID,100,VALID,-0.0169808,VALID,19.6918,VALID,23,VALID,0.475291,
2003-09-25, 00:30:00,VALID,919.197,VALID,0,VALID,100,VALID,0,VALID,19.7087,VALID,4,VALID,0.165128,
2003-09-25, 00:31:00,VALID,919.178,VALID,0,VALID,100,VALID,0.0339617,VALID,19.741,VALID,13,VALID,0.865007,
2003-09-25, 00:32:00,VALID,919.145,VALID,0,VALID,100,VALID,0.0339617,VALID,19.7603,VALID,25,VALID,1.04288,
2003-09-25, 00:33:00,VALID,919.122,VALID,0,VALID,100,VALID,-0.101885,VALID,19.7648,VALID,20,VALID,0.629297,
2003-09-25, 00:34:00,VALID,919.096,VALID,0,VALID,100,VALID,-0.0849042,VALID,19.7422,VALID,19,VALID,0.358232,
2003-09-25, 00:35:00,VALID,919.076,VALID,0,VALID,100,VALID,-0.0849042,VALID,19.7646,VALID,20,VALID,0.545313,
2003-09-25, 00:36:00,VALID,919.05,VALID,0,VALID,100,VALID,-0.0849042,VALID,19.781,VALID,19,VALID,0.711868,
2003-09-25, 00:37:00,VALID,919.036,VALID,0,VALID,100,VALID,-0.0679233,VALID,19.7971,VALID,18,VALID,0.511896,
2003-09-25, 00:38:00,VALID,919.019,VALID,0,VALID,100,VALID,-0.101885,VALID,19.7815,VALID,17,VALID,0.498365,
2003-09-25, 00:39:00,VALID,919.006,VALID,0,VALID,100,VALID,-0.101885,VALID,19.7551,VALID,28,VALID,0.502046,
2003-09-25, 00:40:00,VALID,919.022,VALID,0,VALID,100,VALID,-0.101885,VALID,19.7459,VALID,18,VALID,0.417221,
2003-09-25, 00:41:00,VALID,919.027,VALID,0,VALID,100,VALID,-0.0849042,VALID,19.7459,VALID,18,VALID,0.170387,
2003-09-25, 00:42:00,VALID,919.019,VALID,0,VALID,100,VALID,-0.0849042,VALID,19.7621,VALID,18,VALID,0,
2003-09-25, 00:43:00,VALID,919.023,VALID,0,VALID,100,VALID,-0.0849042,VALID,19.7191,VALID,18,VALID,0,
2003-09-25, 00:44:00,VALID,919.017,VALID,0,VALID,100,VALID,-0.101885,VALID,19.6973,VALID,18,VALID,0,
2003-09-25, 00:45:00,VALID,919.024,VALID,0,VALID,100,VALID,-0.101885,VALID,19.6809,VALID,18,VALID,0,
2003-09-25, 00:46:00,VALID,919.009,VALID,0,VALID,100,VALID,-0.101885,VALID,19.6774,VALID,18,VALID,0.0823171,
2003-09-25, 00:47:00,VALID,919.014,VALID,0,VALID,100,VALID,-0.101885,VALID,19.6742,VALID,18,VALID,0,
2003-09-25, 00:48:00,VALID,919,VALID,0,VALID,100,VALID,0,VALID,19.6766,VALID,18,VALID,0,
2003-09-25, 00:49:00,VALID,918.993,VALID,0,VALID,100,VALID,0,VALID,19.6764,VALID,18,VALID,0,
2003-09-25, 00:50:00,VALID,918.988,VALID,0,VALID,100,VALID,0.0169808,VALID,19.6928,VALID,18,VALID,0,
2003-09-25, 00:51:00,VALID,918.976,VALID,0,VALID,100,VALID,0.0169808,VALID,19.7154,VALID,18,VALID,0.13228,
2003-09-25, 00:52:00,VALID,918.955,VALID,0,VALID,100,VALID,0.0169808,VALID,19.7213,VALID,18,VALID,0.00726744,
2003-09-25, 00:53:00,VALID,918.952,VALID,0,VALID,100,VALID,0.0169808,VALID,19.7122,VALID,18,VALID,0.000952744,
2003-09-25, 00:54:00,VALID,918.942,VALID,0,VALID,100,VALID,0.0339617,VALID,19.6702,VALID,18,VALID,0,
2003-09-25, 00:55:00,VALID,918.936,VALID,0,VALID,100,VALID,0.0339617,VALID,19.6702,VALID,18,VALID,0,
2003-09-25, 00:56:00,VALID,918.934,VALID,0,VALID,100,VALID,0,VALID,19.6694,VALID,18,VALID,0.129906,
2003-09-25, 00:57:00,VALID,918.924,VALID,0,VALID,100,VALID,0,VALID,19.6766,VALID,18,VALID,0.0637718,
2003-09-25, 00:58:00,VALID,918.894,VALID,0,VALID,100,VALID,0.0169808,VALID,19.6831,VALID,18,VALID,0.00971799,
2003-09-25, 00:59:00,VALID,918.875,VALID,0,VALID,100,VALID,0,VALID,19.6826,VALID,18,VALID,0.0864702,
2003-09-25, 01:00:00,VALID,918.863,VALID,0,VALID,100,VALID,0,VALID,19.7022,VALID,18,VALID,0.076527,
2003-09-25, 01:01:00,VALID,918.832,VALID,0,VALID,100,VALID,0.0169808,VALID,19.7119,VALID,18,VALID,0.672447,
2003-09-25, 01:02:00,VALID,918.817,VALID,0,VALID,100,VALID,0.0169808,VALID,19.7181,VALID,16,VALID,0.392663,
2003-09-25, 01:03:00,VALID,918.799,VALID,0,VALID,100,VALID,0.0679233,VALID,19.7345,VALID,21,VALID,0.734375,
2003-09-25, 01:04:00,VALID,918.789,VALID,0,VALID,100,VALID,0.0849042,VALID,19.7218,VALID,13,VALID,0.783668,
2003-09-25, 01:05:00,VALID,918.786,VALID,0,VALID,100,VALID,0.0339617,VALID,19.7176,VALID,14,VALID,0.370206,
2003-09-25, 01:06:00,VALID,918.787,VALID,0,VALID,100,VALID,0.0679233,VALID,19.734,VALID,15,VALID,0.153232,
2003-09-25, 01:07:00,VALID,918.784,VALID,0,VALID,100,VALID,0.0679233,VALID,19.7335,VALID,15,VALID,0.435213,
2003-09-25, 01:08:00,VALID,918.772,VALID,0,VALID,100,VALID,0.0339617,VALID,19.7469,VALID,15,VALID,0.193452,
2003-09-25, 01:09:00,VALID,918.756,VALID,0,VALID,100,VALID,0.0509425,VALID,19.7534,VALID,15,VALID,0.613372,
2003-09-25, 01:10:00,VALID,918.723,VALID,0,VALID,100,VALID,0.0509425,VALID,19.7343,VALID,12,VALID,0.735677,
2003-09-25, 01:11:00,VALID,918.701,VALID,0,VALID,100,VALID,0.0679233,VALID,19.6692,VALID,5,VALID,0.668713,
2003-09-25, 01:12:00,VALID,918.677,VALID,0,VALID,100,VALID,0.101885,VALID,19.6565,VALID,13,VALID,0.796053,
2003-09-25, 01:13:00,VALID,918.651,VALID,0,VALID,100,VALID,0.0509425,VALID,19.6597,VALID,328,VALID,0.270952,
2003-09-25, 01:14:00,VALID,918.635,VALID,0,VALID,100,VALID,0.0169808,VALID,19.6602,VALID,353,VALID,0.0342988,
2003-09-25, 01:15:00,VALID,918.626,VALID,0,VALID,100,VALID,0.0509425,VALID,19.657,VALID,353,VALID,0.278963,
2003-09-25, 01:16:00,VALID,918.609,VALID,0,VALID,100,VALID,0,VALID,19.6533,VALID,354,VALID,0.231712,
2003-09-25, 01:17:00,VALID,918.596,VALID,0,VALID,100,VALID,0.0339617,VALID,19.657,VALID,354,VALID,0.0709135,
2003-09-25, 01:18:00,VALID,918.588,VALID,0,VALID,100,VALID,0,VALID,19.6476,VALID,359,VALID,0.488735,
2003-09-25, 01:19:00,VALID,918.586,VALID,0,VALID,100,VALID,0.0169808,VALID,19.6309,VALID,26,VALID,0.689062,
2003-09-25, 01:20:00,VALID,918.57,VALID,0,VALID,100,VALID,0.0169808,VALID,19.6148,VALID,21,VALID,0.533454,
2003-09-25, 01:21:00,VALID,918.569,VALID,0,VALID,100,VALID,0,VALID,19.5887,VALID,5,VALID,0.598895,
2003-09-25, 01:22:00,VALID,918.561,VALID,0,VALID,100,VALID,0.0679233,VALID,19.5793,VALID,359,VALID,0.6121,
2003-09-25, 01:23:00,VALID,918.533,VALID,0,VALID,100,VALID,0.0339617,VALID,19.579,VALID,35,VALID,0.943714,
2003-09-25, 01:24:00,VALID,918.521,VALID,0,VALID,100,VALID,0.0339617,VALID,19.5636,VALID,31,VALID,0.683966,
2003-09-25, 01:25:00,VALID,918.505,VALID,0,VALID,100,VALID,0.101885,VALID,19.5529,VALID,17,VALID,0.912997,
2003-09-25, 01:26:00,VALID,918.486,VALID,0,VALID,100,VALID,0.0509425,VALID,19.5433,VALID,18,VALID,0.727344,
2003-09-25, 01:27:00,VALID,918.463,VALID,0,VALID,100,VALID,0.0339617,VALID,19.5403,VALID,12,VALID,0.546684,
2003-09-25, 01:28:00,VALID,918.431,VALID,0,VALID,100,VALID,0.0169808,VALID,19.5599,VALID,11,VALID,0.593936,
2003-09-25, 01:29:00,VALID,918.408,VALID,0,VALID,100,VALID,0.0509425,VALID,19.5634,VALID,8,VALID,0.791243,
2003-09-25, 01:30:00,VALID,918.366,VALID,0,VALID,100,VALID,0.0509425,VALID,19.5467,VALID,8,VALID,1.09089,
2003-09-25, 01:31:00,VALID,918.342,VALID,0,VALID,100,VALID,0.0339617,VALID,19.5207,VALID,15,VALID,1.15243,
2003-09-25, 01:32:00,VALID,918.333,VALID,0,VALID,100,VALID,0.0849042,VALID,19.511,VALID,353,VALID,0.666016,
2003-09-25, 01:33:00,VALID,918.305,VALID,0,VALID,100,VALID,-0.0169808,VALID,19.4963,VALID,351,VALID,0.488086,
2003-09-25, 01:34:00,VALID,918.288,VALID,0,VALID,100,VALID,0,VALID,19.4869,VALID,333,VALID,0.506098,
2003-09-25, 01:35:00,VALID,918.273,VALID,0,VALID,100,VALID,-0.0509425,VALID,19.4767,VALID,330,VALID,0.232376,
2003-09-25, 01:36:00,VALID,918.254,VALID,0,VALID,100,VALID,-0.0679233,VALID,19.4841,VALID,320,VALID,0.295987,
2003-09-25, 01:37:00,VALID,918.227,VALID,0,VALID,100,VALID,-0.0339617,VALID,19.4772,VALID,310,VALID,0.0825639,
2003-09-25, 01:38:00,VALID,918.215,VALID,0,VALID,100,VALID,-0.0169808,VALID,19.4769,VALID,313,VALID,0.17223,
2003-09-25, 01:39:00,VALID,918.202,VALID,0,VALID,100,VALID,-0.0169808,VALID,19.4841,VALID,327,VALID,0.11942,
2003-09-25, 01:40:00,VALID,918.196,VALID,0,VALID,100,VALID,-0.0509425,VALID,19.5067,VALID,327,VALID,0,
2003-09-25, 01:41:00,VALID,918.2,VALID,0,VALID,100,VALID,-0.0679233,VALID,19.5032,VALID,327,VALID,0,
2003-09-25, 01:42:00,VALID,918.177,VALID,0,VALID,100,VALID,0,VALID,19.5095,VALID,327,VALID,0,
2003-09-25, 01:43:00,VALID,918.162,VALID,0,VALID,100,VALID,-0.0169808,VALID,19.5194,VALID,321,VALID,0.0807292,
2003-09-25, 01:44:00,VALID,918.154,VALID,0,VALID,100,VALID,-0.0169808,VALID,19.5323,VALID,239,VALID,0.306771,
2003-09-25, 01:45:00,VALID,918.152,VALID,0,VALID,100,VALID,-0.0339617,VALID,19.539,VALID,228,VALID,0.339935,
2003-09-25, 01:46:00,VALID,918.147,VALID,0,VALID,100,VALID,-0.0509425,VALID,19.5348,VALID,237,VALID,0,
2003-09-25, 01:47:00,VALID,918.151,VALID,0,VALID,100,VALID,-0.0509425,VALID,19.5549,VALID,237,VALID,0,
2003-09-25, 01:48:00,VALID,918.147,VALID,0,VALID,100,VALID,-0.0679233,VALID,19.5716,VALID,237,VALID,0,
2003-09-25, 01:49:00,VALID,918.149,VALID,0,VALID,100,VALID,-0.0679233,VALID,19.5549,VALID,237,VALID,0.181836,
2003-09-25, 01:50:00,VALID,918.139,VALID,0,VALID,100,VALID,-0.0339617,VALID,19.5288,VALID,237,VALID,0.251635,
2003-09-25, 01:51:00,VALID,918.127,VALID,0,VALID,100,VALID,-0.0169808,VALID,19.5328,VALID,237,VALID,0.290483,
2003-09-25, 01:52:00,VALID,918.112,VALID,0,VALID,100,VALID,-0.0509425,VALID,19.539,VALID,237,VALID,0.0771723,
2003-09-25, 01:53:00,VALID,918.095,VALID,0,VALID,100,VALID,-0.0339617,VALID,19.5288,VALID,237,VALID,0,
2003-09-25, 01:54:00,VALID,918.061,VALID,0,VALID,100,VALID,-0.0509425,VALID,19.5457,VALID,237,VALID,0.000169837,
2003-09-25, 01:55:00,VALID,918.048,VALID,0,VALID,100,VALID,-0.0169808,VALID,19.5644,VALID,275,VALID,0.204241,
2003-09-25, 01:56:00,VALID,918.05,VALID,0,VALID,100,VALID,-0.0509425,VALID,19.542,VALID,308,VALID,0.0154433,
2003-09-25, 01:57:00,VALID,918.039,VALID,0,VALID,100,VALID,-0.0509425,VALID,19.5226,VALID,308,VALID,0,
2003-09-25, 01:58:00,VALID,918.045,VALID,0,VALID,100,VALID,-0.0679233,VALID,19.4995,VALID,308,VALID,0.0266335,
2003-09-25, 01:59:00,VALID,918.025,VALID,0,VALID,100,VALID,-0.0169808,VALID,19.5194,VALID,308,VALID,0.068784,
2003-09-25, 02:00:00,VALID,918.022,VALID,0,VALID,100,VALID,-0.0679233,VALID,19.51,VALID,308,VALID,0.0405506,
2003-09-25, 02:01:00,VALID,918.02,VALID,0,VALID,100,VALID,-0.0679233,VALID,19.5231,VALID,308,VALID,0,
2003-09-25, 02:02:00,VALID,918.019,VALID,0,VALID,100,VALID,-0.0509425,VALID,19.5097,VALID,308,VALID,0,
2003-09-25, 02:03:00,VALID,918.021,VALID,0,VALID,100,VALID,0.0339617,VALID,19.5214,VALID,308,VALID,0,
2003-09-25, 02:04:00,VALID,918.02,VALID,0,VALID,100,VALID,0.0339617,VALID,19.5313,VALID,308,VALID,0.0783253,
2003-09-25, 02:05:00,VALID,918.024,VALID,0,VALID,100,VALID,0.0169808,VALID,19.5378,VALID,308,VALID,0,
2003-09-25, 02:06:00,VALID,918.016,VALID,0,VALID,100,VALID,0,VALID,19.5209,VALID,308,VALID,0.0212573,
2003-09-25, 02:07:00,VALID,918.019,VALID,0,VALID,100,VALID,0.0169808,VALID,19.5152,VALID,308,VALID,0.0761719,
2003-09-25, 02:08:00,VALID,917.996,VALID,0,VALID,100,VALID,0,VALID,19.5184,VALID,308,VALID,0,
2003-09-25, 02:09:00,VALID,918,VALID,0,VALID,100,VALID,0.0169808,VALID,19.5281,VALID,308,VALID,0.0158155,
2003-09-25, 02:10:00,VALID,917.991,VALID,0,VALID,100,VALID,0.0509425,VALID,19.5378,VALID,308,VALID,0.0127841,
2003-09-25, 02:11:00,VALID,917.988,VALID,0,VALID,100,VALID,0.0339617,VALID,19.512,VALID,308,VALID,0,
2003-09-25, 02:12:00,VALID,917.985,VALID,0,VALID,100,VALID,0,VALID,19.5055,VALID,308,VALID,0,
2003-09-25, 02:13:00,VALID,917.974,VALID,0,VALID,100,VALID,0.0339617,VALID,19.4923,VALID,308,VALID,0,
2003-09-25, 02:14:00,VALID,917.961,VALID,0,VALID,100,VALID,0.0339617,VALID,19.502,VALID,308,VALID,0,
2003-09-25, 02:15:00,VALID,917.941,VALID,0,VALID,100,VALID,0.0509425,VALID,19.5052,VALID,308,VALID,0,
2003-09-25, 02:16:00,VALID,917.928,VALID,0,VALID,100,VALID,0.0169808,VALID,19.4859,VALID,308,VALID,0,
2003-09-25, 02:17:00,VALID,917.896,VALID,0,VALID,100,VALID,0.0339617,VALID,19.4764,VALID,298,VALID,0.20816,
2003-09-25, 02:18:00,VALID,917.879,VALID,0,VALID,100,VALID,0.0169808,VALID,19.4797,VALID,296,VALID,0.175037,
2003-09-25, 02:19:00,VALID,917.863,VALID,0,VALID,100,VALID,0.0509425,VALID,19.4536,VALID,247,VALID,0.358613,
2003-09-25, 02:20:00,VALID,917.859,VALID,0,VALID,100,VALID,0.0679233,VALID,19.4146,VALID,319,VALID,0.35918,
2003-09-25, 02:21:00,VALID,917.84,VALID,0,VALID,100,VALID,0.0169808,VALID,19.4119,VALID,358,VALID,0.346554,
2003-09-25, 02:22:00,VALID,917.818,VALID,0,VALID,100,VALID,0.0169808,VALID,19.4186,VALID,1,VALID,0.322852,
2003-09-25, 02:23:00,VALID,917.798,VALID,0,VALID,100,VALID,0,VALID,19.4178,VALID,350,VALID,0.650923,
2003-09-25, 02:24:00,VALID,917.762,VALID,0,VALID,100,VALID,0.0169808,VALID,19.4084,VALID,313,VALID,0.0793968,
2003-09-25, 02:25:00,VALID,917.734,VALID,0,VALID,100,VALID,0,VALID,19.4186,VALID,350,VALID,0.323847,
2003-09-25, 02:26:00,VALID,917.705,VALID,0,VALID,100,VALID,0.0169808,VALID,19.389,VALID,18,VALID,0.74858,
2003-09-25, 02:27:00,VALID,917.69,VALID,0,VALID,100,VALID,0.0339617,VALID,19.3957,VALID,13,VALID,0.387607,
2003-09-25, 02:28:00,VALID,917.672,VALID,0,VALID,100,VALID,0.0169808,VALID,19.3989,VALID,13,VALID,0.253162,
2003-09-25, 02:29:00,VALID,917.654,VALID,0,VALID,100,VALID,0,VALID,19.3895,VALID,13,VALID,0.0712426,
2003-09-25, 02:30:00,VALID,917.636,VALID,0,VALID,100,VALID,0,VALID,19.3637,VALID,16,VALID,0.324119,
2003-09-25, 02:31:00,VALID,917.623,VALID,0,VALID,100,VALID,0.0169808,VALID,19.3706,VALID,33,VALID,0.0873047,
2003-09-25, 02:32:00,VALID,917.605,VALID,0,VALID,100,VALID,0,VALID,19.3604,VALID,33,VALID,0,
2003-09-25, 02:33:00,VALID,917.599,VALID,0,VALID,100,VALID,0,VALID,19.3604,VALID,33,VALID,0,
2003-09-25, 02:34:00,VALID,917.574,VALID,0,VALID,100,VALID,0,VALID,19.3542,VALID,33,VALID,0,
2003-09-25, 02:35:00,VALID,917.561,VALID,0,VALID,100,VALID,0.0169808,VALID,19.3381,VALID,33,VALID,0,
2003-09-25, 02:36:00,VALID,917.546,VALID,0,VALID,100,VALID,0,VALID,19.3378,VALID,33,VALID,0.0241815,
2003-09-25, 02:37:00,VALID,917.524,VALID,0,VALID,100,VALID,-0.0169808,VALID,19.344,VALID,33,VALID,0.0025436,
2003-09-25, 02:38:00,VALID,917.496,VALID,0,VALID,100,VALID,0.0169808,VALID,19.3408,VALID,33,VALID,0,
2003-09-25, 02:39:00,VALID,917.494,VALID,0,VALID,100,VALID,0,VALID,19.3443,VALID,33,VALID,0,
2003-09-25, 02:40:00,VALID,917.46,VALID,0,VALID,100,VALID,0.0169808,VALID,19.3217,VALID,33,VALID,0.084375,
2003-09-25, 02:41:00,VALID,917.432,VALID,0,VALID,100,VALID,0,VALID,19.3244,VALID,33,VALID,0.251116,
2003-09-25, 02:42:00,VALID,917.421,VALID,0,VALID,100,VALID,0.0169808,VALID,19.3443,VALID,33,VALID,0.00506757,
2003-09-25, 02:43:00,VALID,917.404,VALID,0,VALID,100,VALID,0.0169808,VALID,19.3416,VALID,25,VALID,0.00399709,
2003-09-25, 02:44:00,VALID,917.398,VALID,0,VALID,100,VALID,0,VALID,19.3026,VALID,263,VALID,0.19407,
2003-09-25, 02:45:00,VALID,917.392,VALID,0,VALID,100,VALID,0.0169808,VALID,19.316,VALID,235,VALID,0.0254407,
2003-09-25, 02:46:00,VALID,917.359,VALID,0,VALID,100,VALID,0.0339617,VALID,19.3284,VALID,235,VALID,0.00138889,
2003-09-25, 02:47:00,VALID,917.343,VALID,0,VALID,100,VALID,0.0169808,VALID,19.3214,VALID,8,VALID,0.40298,
2003-09-25, 02:48:00,VALID,917.328,VALID,0,VALID,100,VALID,-0.0849042,VALID,19.3301,VALID,18,VALID,0.400746,
2003-09-25, 02:49:00,VALID,917.31,VALID,0,VALID,100,VALID,-0.0679233,VALID,19.3231,VALID,11,VALID,0.212054,
2003-09-25, 02:50:00,VALID,917.293,VALID,0,VALID,100,VALID,-0.0509425,VALID,19.3296,VALID,10,VALID,0.598514,
2003-09-25, 02:51:00,VALID,917.278,VALID,0,VALID,100,VALID,-0.0849042,VALID,19.3326,VALID,27,VALID,0.643288,
2003-09-25, 02:52:00,VALID,917.278,VALID,0,VALID,100,VALID,-0.0849042,VALID,19.3428,VALID,18,VALID,0.758557,
2003-09-25, 02:53:00,VALID,917.267,VALID,0,VALID,100,VALID,-0.101885,VALID,19.3326,VALID,20,VALID,0.740141,
2003-09-25, 02:54:00,VALID,917.26,VALID,0,VALID,100,VALID,-0.101885,VALID,19.3425,VALID,25,VALID,0.665365,
2003-09-25, 02:55:00,VALID,917.256,VALID,0,VALID,100,VALID,-0.0849042,VALID,19.349,VALID,20,VALID,0.669969,
2003-09-25, 02:56:00,VALID,917.255,VALID,0,VALID,100,VALID,-0.0509425,VALID,19.349,VALID,30,VALID,0.370508,
2003-09-25, 02:57:00,VALID,917.235,VALID,0,VALID,100,VALID,-0.101885,VALID,19.3621,VALID,29,VALID,0.113554,
2003-09-25, 02:58:00,VALID,917.23,VALID,0,VALID,100,VALID,-0.0849042,VALID,19.3587,VALID,15,VALID,0.33576,
2003-09-25, 02:59:01,VALID,917.206,VALID,0,VALID,100,VALID,-0.0679233,VALID,19.3755,VALID,15,VALID,0.154433,
2003-09-25, 03:00:00,VALID,917.21,VALID,0,VALID,100,VALID,-0.0849042,VALID,19.3721,VALID,15,VALID,0.436821,
2003-09-25, 03:01:01,VALID,917.2,VALID,0,VALID,100,VALID,-0.0849042,VALID,19.3617,VALID,15,VALID,0.465701,
2003-09-25, 03:02:01,VALID,917.205,VALID,0,VALID,100,VALID,-0.101885,VALID,19.4016,VALID,10,VALID,0.0872396,
2003-09-25, 03:03:00,VALID,917.195,VALID,0,VALID,100,VALID,0,VALID,19.3994,VALID,10,VALID,0.0428779,
2003-09-25, 03:04:00,VALID,917.183,VALID,0,VALID,100,VALID,-0.0339617,VALID,19.3967,VALID,27,VALID,0.229861,
2003-09-25, 03:05:00,VALID,917.188,VALID,0,VALID,100,VALID,-0.0169808,VALID,19.39,VALID,25,VALID,0.108467,
2003-09-25, 03:06:00,VALID,917.169,VALID,0,VALID,100,VALID,-0.0169808,VALID,19.3828,VALID,18,VALID,0.712891,
2003-09-25, 03:07:01,VALID,917.164,VALID,0,VALID,100,VALID,0,VALID,19.3964,VALID,13,VALID,0.504383,
2003-09-25, 03:08:00,VALID,917.136,VALID,0,VALID,100,VALID,0.0169808,VALID,19.4024,VALID,13,VALID,0.599276,
2003-09-25, 03:09:01,VALID,917.144,VALID,0,VALID,100,VALID,0,VALID,19.396,VALID,20,VALID,0.837305,
2003-09-25, 03:10:00,VALID,917.113,VALID,0,VALID,100,VALID,0,VALID,19.4156,VALID,24,VALID,0.844658,
2003-09-25, 03:11:00,VALID,917.116,VALID,0,VALID,100,VALID,-0.0169808,VALID,19.4186,VALID,29,VALID,0.496838,
2003-09-25, 03:12:00,VALID,917.093,VALID,0,VALID,100,VALID,0,VALID,19.4225,VALID,17,VALID,0.225419,
2003-09-25, 03:13:00,VALID,917.094,VALID,0,VALID,100,VALID,0,VALID,19.4056,VALID,17,VALID,0.538885,
2003-09-25, 03:14:00,VALID,917.081,VALID,0,VALID,100,VALID,0,VALID,19.3997,VALID,16,VALID,0.250744,
2003-09-25, 03:15:00,VALID,917.079,VALID,0,VALID,100,VALID,0,VALID,19.4029,VALID,16,VALID,0.0703125,
2003-09-25, 03:16:01,VALID,917.075,VALID,0,VALID,100,VALID,0.0169808,VALID,19.4019,VALID,16,VALID,0.0385298,
2003-09-25, 03:17:00,VALID,917.066,VALID,0,VALID,100,VALID,0,VALID,19.4059,VALID,16,VALID,0.137277,
2003-09-25, 03:18:00,VALID,917.062,VALID,0,VALID,100,VALID,0,VALID,19.4059,VALID,16,VALID,0.0621189,
2003-09-25, 03:19:00,VALID,917.055,VALID,0,VALID,100,VALID,0,VALID,19.4027,VALID,16,VALID,0.00114329,
2003-09-25, 03:20:00,VALID,917.052,VALID,0,VALID,100,VALID,-0.0169808,VALID,19.3932,VALID,16,VALID,0.163318,
2003-09-25, 03:21:01,VALID,917.032,VALID,0,VALID,100,VALID,0,VALID,19.3763,VALID,16,VALID,0.241616,
2003-09-25, 03:22:00,VALID,917.029,VALID,0,VALID,100,VALID,0,VALID,19.3699,VALID,15,VALID,0.632292,
2003-09-25, 03:23:00,VALID,917.025,VALID,0,VALID,100,VALID,0.0169808,VALID,19.3833,VALID,13,VALID,0.552455,
2003-09-25, 03:24:01,VALID,917.017,VALID,0,VALID,100,VALID,0,VALID,19.383,VALID,13,VALID,0.5359,
2003-09-25, 03:25:00,VALID,917.03,VALID,0,VALID,100,VALID,0.0169808,VALID,19.3895,VALID,13,VALID,0.0603693,
2003-09-25, 03:26:00,VALID,917.033,VALID,0,VALID,100,VALID,0,VALID,19.4123,VALID,13,VALID,0.0177557,
2003-09-25, 03:27:00,VALID,917.026,VALID,0,VALID,100,VALID,0,VALID,19.4056,VALID,13,VALID,0.160247,
2003-09-25, 03:28:00,VALID,917.028,VALID,0,VALID,100,VALID,-0.0169808,VALID,19.3895,VALID,13,VALID,0,
2003-09-25, 03:29:01,VALID,917.034,VALID,0,VALID,100,VALID,0,VALID,19.3932,VALID,13,VALID,0,
2003-09-25, 03:30:00,VALID,917.022,VALID,0,VALID,100,VALID,0,VALID,19.383,VALID,13,VALID,0.00109012,
2003-09-25, 03:31:00,VALID,917.019,VALID,0,VALID,100,VALID,0.0169808,VALID,19.3927,VALID,13,VALID,0.000186012,
2003-09-25, 03:32:01,VALID,917.019,VALID,0,VALID,100,VALID,0,VALID,19.4029,VALID,13,VALID,0.185826,
2003-09-25, 03:33:00,VALID,917.008,VALID,0,VALID,100,VALID,0.0169808,VALID,19.4027,VALID,36,VALID,0.655107,
2003-09-25, 03:34:00,VALID,917.016,VALID,0,VALID,100,VALID,0,VALID,19.3927,VALID,11,VALID,0.556597,
2003-09-25, 03:35:01,VALID,917.028,VALID,0,VALID,100,VALID,0.0169808,VALID,19.4029,VALID,20,VALID,0.611471,
2003-09-25, 03:36:01,VALID,917.039,VALID,0,VALID,100,VALID,0,VALID,19.4056,VALID,31,VALID,0.0679506,
2003-09-25, 03:37:01,VALID,917.041,VALID,0,VALID,100,VALID,0,VALID,19.396,VALID,27,VALID,0.414663,
2003-09-25, 03:38:01,VALID,917.047,VALID,0,VALID,100,VALID,-0.0509425,VALID,19.3969,VALID,9,VALID,0.817827,
2003-09-25, 03:39:00,VALID,917.066,VALID,0,VALID,100,VALID,0,VALID,19.3927,VALID,10,VALID,0.515816,
2003-09-25, 03:40:00,VALID,917.091,VALID,0,VALID,100,VALID,0,VALID,19.3932,VALID,9,VALID,0.91353,
2003-09-25, 03:41:01,VALID,917.095,VALID,0,VALID,100,VALID,0,VALID,19.3701,VALID,8,VALID,0.592297,
2003-09-25, 03:42:00,VALID,917.107,VALID,0,VALID,100,VALID,0,VALID,19.354,VALID,33,VALID,0.697461,
2003-09-25, 03:43:00,VALID,917.12,VALID,0,VALID,100,VALID,0,VALID,19.3602,VALID,15,VALID,0.881359,
2003-09-25, 03:44:00,VALID,917.123,VALID,0,VALID,100,VALID,0,VALID,19.39,VALID,21,VALID,0.586868,
2003-09-25, 03:45:01,VALID,917.133,VALID,0,VALID,100,VALID,0,VALID,19.3897,VALID,17,VALID,0.667302,
2003-09-25, 03:46:01,VALID,917.141,VALID,0,VALID,100,VALID,0.0169808,VALID,19.386,VALID,26,VALID,0.581101,